^^
Station Historical Data
Daily Summary for October 30, 2021 Units:  English    Metric   Both
Daily Weekly Monthly Yearly
  High: Low: Average:
Temperature: 51.5 °F 49.2 °F 50.2 °F
Dew Point: 48 °F 46.4 °F 47.1 °F
Humidity: 92% 83% 89%
Wind Speed: 4mph 1mph 2.7mph
Wind Gust: 10mph - -
Wind- - East
Pressure: 29.63 in 29.58 in -
Precipitation: 0.03 in    
 
 
Tabular Data for October 30, 2021
Time Temperature Dew Point Pressure Wind Wind Speed Wind Gust Humidity Rainfall Rate (Hourly) solar
00:00 50.6 °F 46.9 °F 29.63 in SE 4 mph 5 mph 87% 0.00 in 0 W/m2
00:05 50.6 °F 46.9 °F 29.63 in East 4 mph 5 mph 87% 0.00 in 0 W/m2
00:10 50.7 °F 46.7 °F 29.63 in East 4 mph 5 mph 86% 0.00 in 0 W/m2
00:15 50.7 °F 46.7 °F 29.63 in ESE 4 mph 5 mph 86% 0.00 in 0 W/m2
00:20 50.8 °F 46.8 °F 29.62 in NNW 3 mph 3 mph 86% 0.00 in 0 W/m2
00:25 50.7 °F 46.7 °F 29.63 in NE 3 mph 4 mph 86% 0.00 in 0 W/m2
00:30 50.8 °F 46.8 °F 29.62 in East 3 mph 5 mph 86% 0.00 in 0 W/m2
00:35 50.7 °F 46.7 °F 29.62 in NNE 3 mph 5 mph 86% 0.00 in 0 W/m2
00:40 50.7 °F 46.4 °F 29.62 in ENE 3 mph 3 mph 85% 0.00 in 0 W/m2
00:45 50.7 °F 46.4 °F 29.63 in East 3 mph 3 mph 85% 0.00 in 0 W/m2
00:50 50.7 °F 46.7 °F 29.63 in East 4 mph 5 mph 86% 0.00 in 0 W/m2
00:55 50.6 °F 46.6 °F 29.62 in East 4 mph 5 mph 86% 0.00 in 0 W/m2
01:00 50.6 °F 46.6 °F 29.62 in East 4 mph 4 mph 86% 0.00 in 0 W/m2
01:05 50.6 °F 46.6 °F 29.63 in NE 4 mph 6 mph 86% 0.00 in 0 W/m2
01:10 50.5 °F 46.5 °F 29.63 in North 4 mph 4 mph 86% 0.00 in 0 W/m2
01:15 50.5 °F 46.5 °F 29.62 in ENE 4 mph 4 mph 86% 0.00 in 0 W/m2
01:20 50.5 °F 46.8 °F 29.62 in NE 4 mph 4 mph 87% 0.00 in 0 W/m2
01:25 50.5 °F 46.8 °F 29.62 in ENE 4 mph 4 mph 87% 0.00 in 0 W/m2
01:35 50.4 °F 46.7 °F 29.63 in ENE 4 mph 4 mph 87% 0.00 in 0 W/m2
01:40 50.4 °F 47 °F 29.63 in NNE 4 mph 4 mph 88% 0.00 in 0 W/m2
01:45 50.4 °F 47 °F 29.63 in East 3 mph 6 mph 88% 0.00 in 0 W/m2
01:50 50.5 °F 47.1 °F 29.62 in East 3 mph 6 mph 88% 0.00 in 0 W/m2
01:55 50.5 °F 47.4 °F 29.62 in NE 4 mph 4 mph 89% 0.00 in 0 W/m2
02:00 50.5 °F 47.4 °F 29.62 in ENE 4 mph 4 mph 89% 0.00 in 0 W/m2
02:05 50.5 °F 47.4 °F 29.62 in ESE 4 mph 4 mph 89% 0.00 in 0 W/m2
02:10 50.4 °F 47.3 °F 29.61 in East 4 mph 4 mph 89% 0.00 in 0 W/m2
02:15 50.3 °F 47.2 °F 29.61 in East 4 mph 4 mph 89% 0.00 in 0 W/m2
02:20 50.2 °F 47.1 °F 29.61 in East 4 mph 4 mph 89% 0.00 in 0 W/m2
02:25 50.2 °F 47.4 °F 29.61 in NNE 3 mph 4 mph 90% 0.00 in 0 W/m2
02:30 50.1 °F 47.3 °F 29.61 in NNE 3 mph 4 mph 90% 0.00 in 0 W/m2
02:35 50 °F 47.2 °F 29.61 in ENE 3 mph 4 mph 90% 0.00 in 0 W/m2
02:40 49.9 °F 47.1 °F 29.61 in NE 3 mph 7 mph 90% 0.00 in 0 W/m2
02:45 49.8 °F 47 °F 29.61 in ENE 4 mph 7 mph 90% 0.00 in 0 W/m2
02:50 49.7 °F 46.9 °F 29.61 in NE 4 mph 4 mph 90% 0.00 in 0 W/m2
02:55 49.7 °F 46.9 °F 29.61 in East 4 mph 4 mph 90% 0.00 in 0 W/m2
03:00 49.7 °F 46.9 °F 29.61 in NE 4 mph 4 mph 90% 0.00 in 0 W/m2
03:05 49.6 °F 46.8 °F 29.61 in ESE 4 mph 4 mph 90% 0.00 in 0 W/m2
03:10 49.6 °F 46.8 °F 29.61 in ENE 4 mph 4 mph 90% 0.00 in 0 W/m2
03:15 49.5 °F 46.7 °F 29.61 in ESE 4 mph 4 mph 90% 0.00 in 0 W/m2
03:20 49.4 °F 46.6 °F 29.61 in East 4 mph 9 mph 90% 0.00 in 0 W/m2
03:25 49.4 °F 46.6 °F 29.61 in ENE 4 mph 9 mph 90% 0.00 in 0 W/m2
03:35 49.3 °F 46.5 °F 29.60 in ESE 4 mph 5 mph 90% 0.00 in 0 W/m2
03:40 49.3 °F 46.5 °F 29.60 in East 4 mph 6 mph 90% 0.00 in 0 W/m2
03:45 49.3 °F 46.5 °F 29.60 in East 3 mph 8 mph 90% 0.00 in 0 W/m2
03:50 49.3 °F 46.5 °F 29.60 in East 4 mph 8 mph 90% 0.00 in 0 W/m2
03:55 49.2 °F 46.4 °F 29.60 in East 4 mph 4 mph 90% 0.00 in 0 W/m2
04:00 49.2 °F 46.4 °F 29.60 in ENE 3 mph 5 mph 90% 0.00 in 0 W/m2
04:05 49.2 °F 46.4 °F 29.60 in ENE 3 mph 5 mph 90% 0.00 in 0 W/m2
04:10 49.2 °F 46.4 °F 29.60 in NE 4 mph 6 mph 90% 0.00 in 0 W/m2
04:15 49.2 °F 46.4 °F 29.60 in East 4 mph 6 mph 90% 0.00 in 0 W/m2
04:20 49.2 °F 46.4 °F 29.60 in NE 3 mph 3 mph 90% 0.00 in 0 W/m2
04:25 49.3 °F 46.5 °F 29.60 in East 3 mph 3 mph 90% 0.00 in 0 W/m2
04:30 49.3 °F 46.5 °F 29.60 in NE 3 mph 10 mph 90% 0.00 in 0 W/m2
04:35 49.3 °F 46.5 °F 29.60 in NE 3 mph 10 mph 90% 0.00 in 0 W/m2
04:40 49.4 °F 46.6 °F 29.60 in NE 4 mph 4 mph 90% 0.00 in 0 W/m2
04:45 49.4 °F 46.6 °F 29.59 in ENE 4 mph 5 mph 90% 0.00 in 0 W/m2
04:50 49.4 °F 46.6 °F 29.59 in NE 4 mph 5 mph 90% 0.00 in 0 W/m2
05:00 49.4 °F 46.6 °F 29.59 in East 4 mph 4 mph 90% 0.00 in 0 W/m2
05:05 49.4 °F 46.6 °F 29.60 in NE 4 mph 4 mph 90% 0.00 in 0 W/m2
05:10 49.4 °F 46.6 °F 29.59 in East 4 mph 4 mph 90% 0.00 in 0 W/m2
05:15 49.3 °F 46.5 °F 29.59 in ENE 4 mph 4 mph 90% 0.00 in 0 W/m2
05:20 49.3 °F 46.5 °F 29.59 in NNE 4 mph 4 mph 90% 0.00 in 0 W/m2
05:25 49.3 °F 46.5 °F 29.59 in ESE 4 mph 5 mph 90% 0.00 in 0 W/m2
05:30 49.3 °F 46.5 °F 29.60 in NE 4 mph 4 mph 90% 0.00 in 0 W/m2
05:35 49.3 °F 46.5 °F 29.60 in ENE 3 mph 8 mph 90% 0.00 in 0 W/m2
05:40 49.3 °F 46.5 °F 29.59 in North 3 mph 4 mph 90% 0.00 in 0 W/m2
05:45 49.4 °F 46.6 °F 29.59 in NE 4 mph 4 mph 90% 0.00 in 0 W/m2
05:50 49.4 °F 46.9 °F 29.60 in NNE 3 mph 3 mph 91% 0.00 in 0 W/m2
05:55 49.4 °F 46.9 °F 29.60 in ENE 3 mph 7 mph 91% 0.00 in 0 W/m2
06:00 49.4 °F 46.9 °F 29.60 in East 4 mph 4 mph 91% 0.00 in 0 W/m2
06:05 49.3 °F 46.8 °F 29.60 in East 4 mph 4 mph 91% 0.00 in 0 W/m2
06:10 49.3 °F 46.8 °F 29.60 in NNE 4 mph 5 mph 91% 0.00 in 0 W/m2
06:15 49.3 °F 46.8 °F 29.60 in East 3 mph 5 mph 91% 0.00 in 0 W/m2
06:20 49.4 °F 46.9 °F 29.60 in ENE 3 mph 3 mph 91% 0.00 in 0 W/m2
06:25 49.4 °F 46.9 °F 29.60 in ENE 3 mph 3 mph 91% 0.00 in 0 W/m2
06:30 49.4 °F 46.9 °F 29.60 in NE 3 mph 3 mph 91% 0.00 in 0 W/m2
06:35 49.5 °F 47 °F 29.59 in East 3 mph 3 mph 91% 0.00 in 0 W/m2
06:40 49.6 °F 47.1 °F 29.59 in NE 4 mph 4 mph 91% 0.00 in 0 W/m2
06:45 49.7 °F 47.2 °F 29.59 in ENE 4 mph 9 mph 91% 0.00 in 0 W/m2
06:50 49.8 °F 47.3 °F 29.60 in ESE 4 mph 6 mph 91% 0.00 in 0 W/m2
06:55 49.8 °F 47.3 °F 29.60 in ESE 4 mph 6 mph 91% 0.00 in 0 W/m2
07:00 49.8 °F 47.3 °F 29.59 in NW 4 mph 4 mph 91% 0.00 in 0 W/m2
07:05 49.7 °F 47.2 °F 29.59 in NE 4 mph 4 mph 91% 0.00 in 0 W/m2
07:15 49.6 °F 47.1 °F 29.59 in ENE 4 mph 4 mph 91% 0.00 in 0 W/m2
07:20 49.5 °F 47 °F 29.60 in SE 4 mph 4 mph 91% 0.00 in 0 W/m2
07:25 49.6 °F 47.1 °F 29.59 in East 3 mph 3 mph 91% 0.00 in 0 W/m2
07:30 49.6 °F 47.1 °F 29.59 in SE 3 mph 3 mph 91% 0.00 in 0 W/m2
07:35 49.5 °F 47 °F 29.60 in East 3 mph 3 mph 91% 0.00 in 0 W/m2
07:40 49.5 °F 47 °F 29.59 in NE 3 mph 4 mph 91% 0.00 in 0 W/m2
07:50 49.6 °F 47.1 °F 29.59 in NNW 3 mph 3 mph 91% 0.00 in 0 W/m2
07:55 49.6 °F 47.1 °F 29.59 in NE 3 mph 3 mph 91% 0.00 in 0 W/m2
08:00 49.6 °F 47.1 °F 29.59 in NNE 3 mph 3 mph 91% 0.00 in 0 W/m2
08:05 49.6 °F 47.1 °F 29.59 in ENE 3 mph 4 mph 91% 0.00 in 0 W/m2
08:10 49.6 °F 47.1 °F 29.59 in ENE 3 mph 7 mph 91% 0.00 in 0 W/m2
08:15 49.6 °F 47.1 °F 29.59 in East 3 mph 7 mph 91% 0.00 in 0 W/m2
08:20 49.7 °F 47.2 °F 29.59 in East 3 mph 5 mph 91% 0.00 in 0 W/m2
08:25 49.7 °F 47.2 °F 29.60 in NNE 3 mph 5 mph 91% 0.00 in 0 W/m2
08:30 49.8 °F 47.3 °F 29.60 in NE 3 mph 3 mph 91% 0.00 in 0 W/m2
08:35 49.8 °F 47.3 °F 29.60 in East 4 mph 4 mph 91% 0.00 in 0 W/m2
08:40 49.8 °F 47.3 °F 29.60 in NE 3 mph 3 mph 91% 0.00 in 0 W/m2
08:45 49.8 °F 47.3 °F 29.60 in NE 4 mph 4 mph 91% 0.00 in 0 W/m2
08:50 49.8 °F 47.3 °F 29.60 in SSE 3 mph 3 mph 91% 0.00 in 5 W/m2
08:55 49.8 °F 47.3 °F 29.60 in East 4 mph 4 mph 91% 0.00 in 5 W/m2
09:00 49.7 °F 47.2 °F 29.61 in ENE 4 mph 4 mph 91% 0.00 in 7 W/m2
09:05 49.6 °F 47.1 °F 29.61 in SSE 3 mph 4 mph 91% 0.00 in 7 W/m2
09:10 49.5 °F 47 °F 29.61 in East 4 mph 4 mph 91% 0.00 in 9 W/m2
09:15 49.5 °F 47 °F 29.61 in ESE 4 mph 4 mph 91% 0.00 in 11 W/m2
09:20 49.4 °F 46.9 °F 29.61 in ESE 3 mph 3 mph 91% 0.00 in 11 W/m2
09:25 49.3 °F 46.8 °F 29.61 in WSW 3 mph 3 mph 91% 0.00 in 11 W/m2
09:30 49.3 °F 46.8 °F 29.61 in East 3 mph 3 mph 91% 0.00 in 11 W/m2
09:35 49.3 °F 46.8 °F 29.61 in ENE 3 mph 3 mph 91% 0.00 in 9 W/m2
09:40 49.3 °F 46.8 °F 29.61 in East 2 mph 3 mph 91% 0.00 in 14 W/m2
09:45 49.3 °F 46.8 °F 29.61 in NE 2 mph 3 mph 91% 0.00 in 16 W/m2
09:50 49.3 °F 46.8 °F 29.61 in South 2 mph 2 mph 91% 0.00 in 16 W/m2
09:55 49.3 °F 46.8 °F 29.61 in East 2 mph 2 mph 91% 0.00 in 18 W/m2
10:00 49.4 °F 46.9 °F 29.61 in East 2 mph 2 mph 91% 0.00 in 26 W/m2
10:05 49.4 °F 46.9 °F 29.61 in NE 2 mph 2 mph 91% 0.00 in 37 W/m2
10:10 49.5 °F 47 °F 29.60 in East 3 mph 3 mph 91% 0.00 in 32 W/m2
10:15 49.5 °F 47 °F 29.60 in ESE 3 mph 3 mph 91% 0.00 in 26 W/m2
10:20 49.5 °F 47 °F 29.61 in ENE 3 mph 3 mph 91% 0.00 in 28 W/m2
10:25 49.6 °F 47.1 °F 29.61 in East 3 mph 3 mph 91% 0.00 in 33 W/m2
10:30 49.6 °F 47.1 °F 29.61 in East 4 mph 4 mph 91% 0.00 in 37 W/m2
10:35 49.5 °F 47 °F 29.60 in East 4 mph 4 mph 91% 0.00 in 72 W/m2
10:40 49.5 °F 47 °F 29.60 in ENE 3 mph 5 mph 91% 0.00 in 42 W/m2
10:45 49.5 °F 47 °F 29.60 in East 3 mph 5 mph 91% 0.00 in 35 W/m2
10:50 49.5 °F 47 °F 29.60 in ESE 3 mph 3 mph 91% 0.00 in 39 W/m2
10:55 49.6 °F 47.1 °F 29.60 in ENE 3 mph 4 mph 91% 0.00 in 46 W/m2
11:00 49.6 °F 47.1 °F 29.60 in East 2 mph 5 mph 91% 0.00 in 51 W/m2
11:05 49.7 °F 47.2 °F 29.60 in ENE 3 mph 5 mph 91% 0.00 in 53 W/m2
11:10 49.7 °F 47.5 °F 29.60 in East 3 mph 3 mph 92% 0.00 in 30 W/m2
11:15 49.8 °F 47.6 °F 29.60 in ENE 4 mph 4 mph 92% 0.00 in 46 W/m2
11:20 49.9 °F 47.7 °F 29.60 in East 3 mph 3 mph 92% 0.00 in 51 W/m2
11:30 50 °F 47.8 °F 29.60 in East 3 mph 3 mph 92% 0.00 in 37 W/m2
11:35 50 °F 47.8 °F 29.60 in SE 3 mph 3 mph 92% 0.00 in 33 W/m2
11:40 50 °F 47.8 °F 29.60 in ENE 3 mph 3 mph 92% 0.00 in 44 W/m2
11:45 50 °F 47.5 °F 29.60 in WNW 3 mph 3 mph 91% 0.00 in 63 W/m2
11:50 50 °F 47.5 °F 29.60 in ENE 3 mph 3 mph 91% 0.00 in 46 W/m2
11:55 50.1 °F 47.6 °F 29.60 in East 3 mph 4 mph 91% 0.00 in 47 W/m2
12:00 50.1 °F 47.6 °F 29.60 in ENE 3 mph 3 mph 91% 0.00 in 51 W/m2
12:05 50.1 °F 47.6 °F 29.60 in East 3 mph 5 mph 91% 0.00 in 53 W/m2
12:10 50.1 °F 47.6 °F 29.60 in ENE 3 mph 3 mph 91% 0.00 in 56 W/m2
12:15 50.2 °F 47.7 °F 29.60 in East 3 mph 3 mph 91% 0.00 in 46 W/m2
12:20 50.3 °F 47.8 °F 29.60 in SE 3 mph 4 mph 91% 0.00 in 40 W/m2
12:25 50.3 °F 47.8 °F 29.60 in East 3 mph 4 mph 91% 0.00 in 42 W/m2
12:30 50.3 °F 47.5 °F 29.60 in East 3 mph 3 mph 90% 0.00 in 40 W/m2
12:35 50.3 °F 47.5 °F 29.60 in East 2 mph 4 mph 90% 0.00 in 58 W/m2
12:40 50.4 °F 47.6 °F 29.60 in ESE 2 mph 2 mph 90% 0.00 in 53 W/m2
12:45 50.5 °F 47.7 °F 29.60 in ENE 3 mph 3 mph 90% 0.00 in 67 W/m2
12:50 50.4 °F 47.6 °F 29.59 in NNE 3 mph 3 mph 90% 0.00 in 70 W/m2
12:55 50.5 °F 47.7 °F 29.59 in ENE 3 mph 3 mph 90% 0.00 in 72 W/m2
13:05 50.6 °F 47.8 °F 29.59 in NE 2 mph 4 mph 90% 0.00 in 60 W/m2
13:10 50.6 °F 47.5 °F 29.59 in ENE 2 mph 2 mph 89% 0.00 in 58 W/m2
13:15 50.6 °F 47.5 °F 29.59 in North 2 mph 2 mph 89% 0.00 in 47 W/m2
13:20 50.6 °F 47.5 °F 29.59 in North 2 mph 2 mph 89% 0.00 in 39 W/m2
13:25 50.5 °F 47.4 °F 29.59 in ENE 2 mph 3 mph 89% 0.00 in 49 W/m2
13:30 50.5 °F 47.1 °F 29.59 in East 3 mph 3 mph 88% 0.00 in 53 W/m2
13:35 50.5 °F 47.1 °F 29.59 in East 3 mph 3 mph 88% 0.00 in 53 W/m2
13:40 50.5 °F 47.1 °F 29.58 in ESE 3 mph 5 mph 88% 0.00 in 62 W/m2
13:45 50.5 °F 47.1 °F 29.58 in SE 3 mph 5 mph 88% 0.00 in 54 W/m2
13:50 50.4 °F 47.3 °F 29.58 in ENE 2 mph 4 mph 89% 0.00 in 62 W/m2
13:55 50.3 °F 47.2 °F 29.59 in ENE 2 mph 4 mph 89% 0.00 in 42 W/m2
14:00 50.2 °F 47.1 °F 29.58 in ENE 3 mph 3 mph 89% 0.00 in 51 W/m2
14:05 50.1 °F 47 °F 29.58 in East 2 mph 3 mph 89% 0.00 in 49 W/m2
14:10 50 °F 46.9 °F 29.58 in ESE 2 mph 3 mph 89% 0.00 in 49 W/m2
14:15 50 °F 46.9 °F 29.58 in ENE 3 mph 3 mph 89% 0.00 in 74 W/m2
14:20 50 °F 46.9 °F 29.58 in ENE 2 mph 2 mph 89% 0.00 in 76 W/m2
14:25 49.9 °F 46.8 °F 29.58 in East 2 mph 2 mph 89% 0.00 in 141 W/m2
14:30 50 °F 46.9 °F 29.58 in NE 2 mph 2 mph 89% 0.00 in 70 W/m2
14:35 50.1 °F 47 °F 29.58 in ENE 2 mph 2 mph 89% 0.00 in 62 W/m2
14:40 50.1 °F 47 °F 29.58 in East 2 mph 3 mph 89% 0.00 in 72 W/m2
14:45 50.1 °F 47 °F 29.58 in NE 2 mph 3 mph 89% 0.00 in 65 W/m2
14:50 50.1 °F 47 °F 29.58 in ENE 2 mph 4 mph 89% 0.00 in 49 W/m2
14:55 50.1 °F 47 °F 29.58 in NNW 2 mph 4 mph 89% 0.00 in 49 W/m2
15:00 50 °F 46.9 °F 29.58 in ESE 2 mph 2 mph 89% 0.00 in 39 W/m2
15:05 50 °F 46.9 °F 29.58 in ENE 2 mph 3 mph 89% 0.00 in 44 W/m2
15:10 50.1 °F 47 °F 29.58 in NE 2 mph 2 mph 89% 0.00 in 32 W/m2
15:15 50.1 °F 47 °F 29.58 in ENE 1 mph 2 mph 89% 0.00 in 30 W/m2
15:20 50.1 °F 47 °F 29.59 in SE 1 mph 2 mph 89% 0.00 in 21 W/m2
15:25 50.1 °F 47 °F 29.58 in SE 1 mph 3 mph 89% 0.00 in 26 W/m2
15:30 50.2 °F 47.1 °F 29.58 in East 2 mph 2 mph 89% 0.00 in 32 W/m2
15:35 50.2 °F 47.1 °F 29.59 in East 2 mph 3 mph 89% 0.00 in 32 W/m2
15:40 50.2 °F 47.1 °F 29.59 in East 2 mph 2 mph 89% 0.00 in 35 W/m2
15:45 50.3 °F 47.2 °F 29.59 in ENE 1 mph 2 mph 89% 0.00 in 32 W/m2
15:50 50.3 °F 47.2 °F 29.59 in NE 2 mph 2 mph 89% 0.00 in 35 W/m2
15:55 50.3 °F 47.2 °F 29.59 in East 1 mph 2 mph 89% 0.00 in 28 W/m2
16:00 50.3 °F 47.2 °F 29.59 in ENE 1 mph 5 mph 89% 0.00 in 28 W/m2
16:05 50.3 °F 46.9 °F 29.59 in North 1 mph 5 mph 88% 0.00 in 30 W/m2
16:10 50.3 °F 46.9 °F 29.59 in North 1 mph 1 mph 88% 0.00 in 25 W/m2
16:20 50.4 °F 47 °F 29.59 in ESE 1 mph 1 mph 88% 0.00 in 21 W/m2
16:25 50.5 °F 47.1 °F 29.60 in East 1 mph 1 mph 88% 0.00 in 21 W/m2
16:30 50.5 °F 47.1 °F 29.60 in East 2 mph 2 mph 88% 0.00 in 21 W/m2
16:35 50.5 °F 47.1 °F 29.59 in ENE 2 mph 2 mph 88% 0.00 in 37 W/m2
16:40 50.6 °F 47.2 °F 29.59 in North 2 mph 5 mph 88% 0.00 in 32 W/m2
16:45 50.6 °F 46.9 °F 29.59 in NW 2 mph 5 mph 87% 0.00 in 33 W/m2
16:50 50.7 °F 47 °F 29.59 in East 2 mph 2 mph 87% 0.00 in 32 W/m2
16:55 50.8 °F 47.1 °F 29.59 in ENE 2 mph 3 mph 87% 0.00 in 25 W/m2
17:00 50.8 °F 47.1 °F 29.59 in ENE 2 mph 2 mph 87% 0.00 in 25 W/m2
17:10 50.9 °F 47.2 °F 29.60 in North 1 mph 1 mph 87% 0.00 in 18 W/m2
17:15 50.9 °F 47.2 °F 29.60 in North 1 mph 2 mph 87% 0.00 in 19 W/m2
17:20 50.9 °F 47.2 °F 29.60 in North 1 mph 1 mph 87% 0.00 in 21 W/m2
17:25 51 °F 47.3 °F 29.60 in NE 1 mph 2 mph 87% 0.00 in 18 W/m2
17:30 51 °F 47.3 °F 29.60 in SE 1 mph 1 mph 87% 0.00 in 9 W/m2
17:35 51 °F 47.3 °F 29.60 in NE 1 mph 2 mph 87% 0.00 in 7 W/m2
17:40 51 °F 47.3 °F 29.60 in ESE 1 mph 2 mph 87% 0.00 in 7 W/m2
17:45 51 °F 47.3 °F 29.60 in ENE 1 mph 2 mph 87% 0.00 in 7 W/m2
17:50 51.1 °F 47.4 °F 29.61 in East 1 mph 1 mph 87% 0.00 in 5 W/m2
17:55 51 °F 47.3 °F 29.61 in ENE 1 mph 1 mph 87% 0.00 in 0 W/m2
18:00 51 °F 47.3 °F 29.61 in NE 1 mph 1 mph 87% 0.00 in 0 W/m2
18:05 51 °F 47.3 °F 29.60 in ESE 1 mph 1 mph 87% 0.00 in 0 W/m2
18:10 51 °F 47.3 °F 29.61 in East 1 mph 1 mph 87% 0.00 in 0 W/m2
18:15 51 °F 47.3 °F 29.61 in NE 1 mph 1 mph 87% 0.00 in 0 W/m2
18:20 51 °F 47.3 °F 29.61 in NE 1 mph 1 mph 87% 0.00 in 0 W/m2
18:25 51 °F 47.3 °F 29.61 in ENE 1 mph 1 mph 87% 0.00 in 0 W/m2
18:30 50.9 °F 47.2 °F 29.61 in NNW 1 mph 1 mph 87% 0.00 in 0 W/m2
18:35 51 °F 47.3 °F 29.62 in NNE 1 mph 2 mph 87% 0.00 in 0 W/m2
18:40 51 °F 47.3 °F 29.62 in SE 2 mph 2 mph 87% 0.00 in 0 W/m2
18:45 51.1 °F 47.7 °F 29.62 in NE 2 mph 2 mph 88% 0.00 in 0 W/m2
18:50 51 °F 47.6 °F 29.62 in SE 2 mph 2 mph 88% 0.00 in 0 W/m2
18:55 51 °F 47.9 °F 29.62 in ENE 2 mph 2 mph 89% 0.00 in 0 W/m2
19:00 51 °F 47.9 °F 29.62 in ENE 2 mph 2 mph 89% 0.00 in 0 W/m2
19:05 50.9 °F 47.8 °F 29.62 in NNE 2 mph 2 mph 89% 0.00 in 0 W/m2
19:10 50.9 °F 47.8 °F 29.62 in East 1 mph 1 mph 89% 0.00 in 0 W/m2
19:15 50.8 °F 47.7 °F 29.62 in North 2 mph 3 mph 89% 0.00 in 0 W/m2
19:20 50.8 °F 47.7 °F 29.62 in West 2 mph 2 mph 89% 0.00 in 0 W/m2
19:25 50.8 °F 48 °F 29.62 in North 2 mph 2 mph 90% 0.00 in 0 W/m2
19:30 50.7 °F 47.9 °F 29.62 in ENE 2 mph 2 mph 90% 0.00 in 0 W/m2
19:35 50.6 °F 47.8 °F 29.62 in North 2 mph 4 mph 90% 0.00 in 0 W/m2
19:40 50.6 °F 47.8 °F 29.63 in North 3 mph 3 mph 90% 0.00 in 0 W/m2
19:45 50.6 °F 47.8 °F 29.63 in NNE 2 mph 4 mph 90% 0.00 in 0 W/m2
19:50 50.5 °F 47.7 °F 29.63 in SE 2 mph 2 mph 90% 0.00 in 0 W/m2
20:00 50.6 °F 47.8 °F 29.63 in NW 2 mph 2 mph 90% 0.00 in 0 W/m2
20:05 50.6 °F 47.8 °F 29.63 in NNW 2 mph 4 mph 90% 0.00 in 0 W/m2
20:10 50.6 °F 47.8 °F 29.63 in WNW 2 mph 2 mph 90% 0.00 in 0 W/m2
20:15 50.6 °F 47.8 °F 29.62 in SW 2 mph 2 mph 90% 0.00 in 0 W/m2
20:20 50.5 °F 47.4 °F 29.62 in NW 3 mph 3 mph 89% 0.00 in 0 W/m2
20:25 50.5 °F 47.4 °F 29.62 in NE 2 mph 3 mph 89% 0.00 in 0 W/m2
20:30 50.5 °F 47.4 °F 29.62 in SSE 2 mph 2 mph 89% 0.00 in 0 W/m2
20:35 50.6 °F 47.5 °F 29.62 in North 2 mph 4 mph 89% 0.00 in 0 W/m2
20:40 50.6 °F 47.5 °F 29.62 in NE 2 mph 3 mph 89% 0.00 in 0 W/m2
20:45 50.6 °F 47.5 °F 29.63 in SE 2 mph 3 mph 89% 0.00 in 0 W/m2
20:50 50.6 °F 47.2 °F 29.63 in NNE 2 mph 2 mph 88% 0.00 in 0 W/m2
20:55 50.7 °F 47.3 °F 29.62 in NNE 2 mph 2 mph 88% 0.00 in 0 W/m2
21:00 50.8 °F 47.4 °F 29.63 in NE 2 mph 2 mph 88% 0.00 in 0 W/m2
21:05 50.8 °F 47.4 °F 29.63 in ENE 2 mph 2 mph 88% 0.00 in 0 W/m2
21:10 50.9 °F 47.5 °F 29.63 in NNE 2 mph 2 mph 88% 0.00 in 0 W/m2
21:15 50.9 °F 47.5 °F 29.62 in SSE 2 mph 3 mph 88% 0.00 in 0 W/m2
21:20 50.9 °F 47.2 °F 29.62 in ENE 2 mph 3 mph 87% 0.00 in 0 W/m2
21:25 51 °F 47.3 °F 29.62 in North 2 mph 3 mph 87% 0.00 in 0 W/m2
21:30 51 °F 47.3 °F 29.63 in NNW 2 mph 3 mph 87% 0.00 in 0 W/m2
21:35 51 °F 47.3 °F 29.63 in SW 2 mph 3 mph 87% 0.00 in 0 W/m2
21:40 51 °F 47 °F 29.62 in NE 2 mph 2 mph 86% 0.00 in 0 W/m2
21:45 51.1 °F 47.1 °F 29.63 in ENE 2 mph 2 mph 86% 0.00 in 0 W/m2
21:50 51.1 °F 47.1 °F 29.63 in ENE 2 mph 2 mph 86% 0.00 in 0 W/m2
21:55 51.2 °F 47.2 °F 29.63 in NNE 2 mph 3 mph 86% 0.00 in 0 W/m2
22:00 51.3 °F 47.3 °F 29.63 in NE 3 mph 7 mph 86% 0.00 in 0 W/m2
22:05 51.4 °F 47.4 °F 29.63 in North 3 mph 7 mph 86% 0.00 in 0 W/m2
22:10 51.4 °F 47.4 °F 29.63 in South 3 mph 3 mph 86% 0.00 in 0 W/m2
22:15 51.3 °F 46.9 °F 29.63 in NE 3 mph 3 mph 85% 0.00 in 0 W/m2
22:20 51.3 °F 46.9 °F 29.63 in NE 3 mph 3 mph 85% 0.00 in 0 W/m2
22:25 51.3 °F 46.9 °F 29.63 in West 3 mph 3 mph 85% 0.00 in 0 W/m2
22:30 51.4 °F 47 °F 29.63 in SE 3 mph 3 mph 85% 0.00 in 0 W/m2
22:35 51.4 °F 46.7 °F 29.63 in West 3 mph 7 mph 84% 0.00 in 0 W/m2
22:40 51.4 °F 46.7 °F 29.63 in North 3 mph 3 mph 84% 0.00 in 0 W/m2
22:50 51.4 °F 46.7 °F 29.63 in NE 3 mph 4 mph 84% 0.00 in 0 W/m2
22:55 51.4 °F 46.7 °F 29.63 in NNE 2 mph 4 mph 84% 0.00 in 0 W/m2
23:00 51.4 °F 46.7 °F 29.63 in North 2 mph 4 mph 84% 0.00 in 0 W/m2
23:05 51.4 °F 46.7 °F 29.63 in WNW 2 mph 4 mph 84% 0.00 in 0 W/m2
23:10 51.4 °F 46.4 °F 29.63 in North 3 mph 3 mph 83% 0.00 in 0 W/m2
23:15 51.5 °F 46.5 °F 29.63 in North 3 mph 5 mph 83% 0.00 in 0 W/m2
23:20 51.5 °F 46.5 °F 29.63 in East 3 mph 3 mph 83% 0.00 in 0 W/m2
23:25 51.4 °F 46.4 °F 29.63 in NNW 2 mph 3 mph 83% 0.00 in 0 W/m2
23:30 51.4 °F 46.4 °F 29.63 in South 2 mph 3 mph 83% 0.00 in 0 W/m2
23:35 51.4 °F 46.4 °F 29.63 in East 2 mph 3 mph 83% 0.00 in 0 W/m2
23:40 51.5 °F 46.8 °F 29.63 in ESE 2 mph 2 mph 84% 0.00 in 0 W/m2
23:45 51.5 °F 46.8 °F 29.63 in NE 2 mph 3 mph 84% 0.00 in 0 W/m2
23:50 51.4 °F 46.7 °F 29.63 in ENE 2 mph 2 mph 84% 0.00 in 0 W/m2
23:55 51.5 °F 46.8 °F 29.63 in NE 2 mph 2 mph 84% 0.00 in 0 W/m2
Sand Point, Michigan, USA
Compliments of Weather Underground - 2 mb